W4HIX-2 Palmetto FL US current weather conditions

sailwx.info

Air temperature 12.8° C
Dewpoint 12.2° C

Last reported at 2019-Dec-07 08:00 UTC.
Time now 2019-Dec-07 08:35 UTC

Location: N 27°32' W 082°38'.
View on Google Maps.

See reports from other nearby stations

  
Tides and Currents Weather Stations Pressure Air Temp Water Temp Dewpoint Dewpoint Depression Visibility Wind Speed Wind Dir Waves Ship Positions
date/time (UTC)wind fromknots sea level pressurealtimeterstation pressurevisibilityair tempwater tempwave heightnotes
2019-Dec-07 08:00 12.8
2019-Dec-07 07:50 12.8
2019-Dec-07 07:40 13.3
2019-Dec-07 07:30 279 13.9
2019-Dec-07 07:20 279 13.9
2019-Dec-07 07:10 279 13.9
2019-Dec-07 07:00 279 13.9
2019-Dec-07 06:50 14.4
2019-Dec-07 06:40 14.4
2019-Dec-07 06:30 13.9
2019-Dec-07 06:20 13.9
2019-Dec-07 06:10 13.9
2019-Dec-07 06:00 279 14.4
2019-Dec-07 05:50 279 13.9
2019-Dec-07 05:40 279 13.9
2019-Dec-07 05:30 279 14.4
2019-Dec-07 05:20 14.4
2019-Dec-07 05:10 14.4
2019-Dec-07 05:00 279 14.4
2019-Dec-07 04:50 13.9
2019-Dec-07 04:40 13.9
2019-Dec-07 04:30 13.9
2019-Dec-07 04:20 13.3
2019-Dec-07 04:10 279 13.3
2019-Dec-07 04:00 279 13.3
2019-Dec-07 03:50 279 13.3
2019-Dec-07 03:40 14.4
2019-Dec-07 03:30 14.4
2019-Dec-07 03:20 13.9
2019-Dec-07 03:10 14.4
2019-Dec-07 03:00 13.9
2019-Dec-07 02:50 14.4
2019-Dec-07 02:40 14.4
2019-Dec-07 02:30 279 14.4
2019-Dec-07 02:20 14.4
2019-Dec-07 02:10 279 14.4
2019-Dec-07 02:00 14.4
2019-Dec-07 01:50 14.4
2019-Dec-07 01:40 14.4
2019-Dec-07 01:30 14.4
2019-Dec-07 01:20 279 14.4
2019-Dec-07 01:10 14.4
2019-Dec-07 01:00 15.0
2019-Dec-07 00:50 15.6
2019-Dec-07 00:40 15.6
2019-Dec-07 00:30 279 15.6
2019-Dec-07 00:20 279 15.0
2019-Dec-07 00:10 279 15.0
2019-Dec-07 00:00 15.0
2019-Dec-06 23:50 279 15.6
2019-Dec-06 23:40 279 15.0
2019-Dec-06 23:30 15.6
2019-Dec-06 23:20 279 15.6
2019-Dec-06 23:10 279 16.1
2019-Dec-06 23:00 16.1
2019-Dec-06 22:50 279 16.7
2019-Dec-06 22:40 279 17.2
2019-Dec-06 22:30 279 18.3
2019-Dec-06 22:20 279 19.4
2019-Dec-06 22:10 20.0
2019-Dec-06 22:00 20.6
2019-Dec-06 21:50 280 21.1
2019-Dec-06 21:40 279 21.1
2019-Dec-06 21:30 298 0 gusting 2 21.1
2019-Dec-06 21:20 302 21.7
2019-Dec-06 21:10 302 21.7
2019-Dec-06 21:00 294 21.7
2019-Dec-06 20:50 266 21.7
2019-Dec-06 20:40 329 21.7
2019-Dec-06 20:30 358 21.7
2019-Dec-06 20:20 301 0 gusting 2 21.7
2019-Dec-06 20:10 313 0 gusting 3 21.1
2019-Dec-06 20:00 305 0 gusting 3 21.7
2019-Dec-06 19:50 278 21.7
2019-Dec-06 19:40 289 0 gusting 5 21.1
2019-Dec-06 19:30 285 21.7
2019-Dec-06 19:20 278 21.1
2019-Dec-06 19:10 284 21.1
2019-Dec-06 19:00 283 0 gusting 4 21.1
2019-Dec-06 18:50 290 21.1
2019-Dec-06 18:40 295 21.1
2019-Dec-06 18:30 280 21.1
2019-Dec-06 18:20 281 21.1
2019-Dec-06 18:10 291 21.7
2019-Dec-06 18:00 284 21.7
2019-Dec-06 17:50 261 21.1
2019-Dec-06 17:40 282 0 gusting 2 21.1
2019-Dec-06 17:30 285 21.1
2019-Dec-06 17:20 282 21.7
2019-Dec-06 17:10 263 22.2
2019-Dec-06 17:00 155 21.7
2019-Dec-06 16:50 22.2
2019-Dec-06 16:40 23.3
2019-Dec-06 16:30 23.3
2019-Dec-06 16:20 22.2
2019-Dec-06 16:10 154 21.7
2019-Dec-06 16:00 151 21.7
2019-Dec-06 15:50 151 21.1
2019-Dec-06 15:40 151 20.6
2019-Dec-06 15:30 149 0 gusting 2 20.0
2019-Dec-06 15:20 148 20.0
2019-Dec-06 15:10 147 19.4
2019-Dec-06 15:00 148 0 gusting 2 18.3
2019-Dec-06 14:50 150 0 gusting 3 17.8
2019-Dec-06 14:40 148 2 gusting 4 17.2
2019-Dec-06 14:30 158 1 gusting 3 17.8
2019-Dec-06 14:20 160 0 gusting 2 17.8
2019-Dec-06 14:10 176 17.8
2019-Dec-06 14:00 176 16.7
2019-Dec-06 13:50 176 16.1
2019-Dec-06 13:40 176 15.6
2019-Dec-06 13:30 176 14.4
2019-Dec-06 13:20 13.9
2019-Dec-06 13:10 176 12.8
2019-Dec-06 13:00 12.2
2019-Dec-06 12:50 176 11.1
2019-Dec-06 12:40 11.1
2019-Dec-06 12:30 10.6
2019-Dec-06 12:20 10.6
2019-Dec-06 12:10 10.6
2019-Dec-06 12:00 10.6
2019-Dec-06 11:50 10.6
2019-Dec-06 11:40 10.6
2019-Dec-06 11:30 10.6
2019-Dec-06 11:20 10.6
2019-Dec-06 11:10 10.0
2019-Dec-06 11:00 10.6
2019-Dec-06 10:50 10.6
2019-Dec-06 10:40 10.6
2019-Dec-06 10:30 10.6
2019-Dec-06 10:20 10.6
2019-Dec-06 10:10 10.0
2019-Dec-06 10:00 10.0
2019-Dec-06 09:50 10.0
2019-Dec-06 09:40 10.0
2019-Dec-06 09:30 10.0
2019-Dec-06 09:20 10.6
2019-Dec-06 09:10 10.0
2019-Dec-06 09:00 10.0
2019-Dec-06 08:50 10.0
2019-Dec-06 08:40 10.0
2019-Dec-06 08:30 10.0
2019-Dec-06 08:20 10.0
2019-Dec-06 08:10 9.4
2019-Dec-06 08:00 9.4
2019-Dec-06 07:50 9.4
2019-Dec-06 07:40 9.4
2019-Dec-06 07:30 10.0
2019-Dec-06 07:20 10.0
2019-Dec-06 07:10 10.0
2019-Dec-06 07:00 10.0
2019-Dec-06 06:50 10.0
2019-Dec-06 06:40 10.0
2019-Dec-06 06:30 10.0
2019-Dec-06 06:20 10.0
2019-Dec-06 06:10 10.0
2019-Dec-06 06:00 10.6
2019-Dec-06 05:50 10.6
2019-Dec-06 05:40 10.6
2019-Dec-06 05:30 10.6
2019-Dec-06 05:20 11.1
2019-Dec-06 05:10 11.1
2019-Dec-06 05:00 11.1
2019-Dec-06 04:50 11.1
2019-Dec-06 04:40 10.6
2019-Dec-06 04:30 10.6
2019-Dec-06 04:20 10.6
2019-Dec-06 04:10 11.1
2019-Dec-06 04:00 11.1
2019-Dec-06 03:50 11.1
2019-Dec-06 03:40 11.7
2019-Dec-06 03:30 11.7
2019-Dec-06 03:20 11.1
2019-Dec-06 03:10 11.7
2019-Dec-06 03:00 11.7
2019-Dec-06 02:50 12.2
2019-Dec-06 02:40 12.8
2019-Dec-06 02:30 12.2
2019-Dec-06 02:20 12.2
2019-Dec-06 02:10 12.8
2019-Dec-06 02:00 12.2
2019-Dec-06 01:50 12.2
2019-Dec-06 01:40 12.2
2019-Dec-06 01:30 12.2
2019-Dec-06 01:20 12.8
2019-Dec-06 01:10 12.8
2019-Dec-06 01:00 12.8
2019-Dec-06 00:50 12.8
2019-Dec-06 00:40 12.2
2019-Dec-06 00:30 12.8
2019-Dec-06 00:20 12.8
2019-Dec-06 00:10 13.3
2019-Dec-06 00:00 312 13.3
2019-Dec-05 23:50 13.3
2019-Dec-05 23:40 312 13.3
2019-Dec-05 23:30 13.3
2019-Dec-05 23:20 13.9
2019-Dec-05 23:10 312 14.4
2019-Dec-05 23:00 15.0
2019-Dec-05 22:50 312 15.0
2019-Dec-05 22:40 312 15.6
2019-Dec-05 22:30 312 16.1
2019-Dec-05 22:20 312 16.7
2019-Dec-05 22:10 312 17.8
2019-Dec-05 22:00 312 17.8
2019-Dec-05 21:50 312 18.9
2019-Dec-05 21:40 312 19.4
2019-Dec-05 21:30 199 19.4
2019-Dec-05 21:20 177 19.4
2019-Dec-05 21:10 322 19.4
2019-Dec-05 21:00 273 19.4
2019-Dec-05 20:50 037 19.4
2019-Dec-05 20:40 086 0 gusting 3 19.4
2019-Dec-05 20:30 047 0 gusting 2 19.4
2019-Dec-05 20:20 124 0 gusting 3 19.4
2019-Dec-05 20:10 263 19.4
2019-Dec-05 20:00 149 19.4
2019-Dec-05 19:50 116 19.4
2019-Dec-05 19:40 073 0 gusting 4 19.4
2019-Dec-05 19:30 348 0 gusting 4 19.4
2019-Dec-05 19:20 275 19.4
2019-Dec-05 19:10 327 19.4
2019-Dec-05 19:00 104 0 gusting 5 20.0
2019-Dec-05 18:50 320 0 gusting 6 20.0
2019-Dec-05 18:40 330 19.4
2019-Dec-05 18:30 093 19.4
2019-Dec-05 18:20 313 0 gusting 5 19.4
2019-Dec-05 18:10 302 0 gusting 5 19.4
2019-Dec-05 18:00 352 0 gusting 4 19.4
2019-Dec-05 17:50 327 0 gusting 5 19.4
2019-Dec-05 17:40 358 0 gusting 3 19.4
2019-Dec-05 17:30 075 18.9
2019-Dec-05 17:20 091 0 gusting 3 18.9
2019-Dec-05 17:10 106 0 gusting 4 18.9
2019-Dec-05 17:00 078 0 gusting 4 18.9
2019-Dec-05 16:50 153 0 gusting 4 18.3
2019-Dec-05 16:40 104 0 gusting 4 18.3
2019-Dec-05 16:30 085 0 gusting 6 18.3
2019-Dec-05 16:20 075 0 gusting 3 18.9
2019-Dec-05 16:10 097 0 gusting 3 18.9
2019-Dec-05 16:00 358 0 gusting 5 18.9
2019-Dec-05 15:50 343 0 gusting 3 18.9
2019-Dec-05 15:40 295 18.3
2019-Dec-05 15:30 149 17.8
2019-Dec-05 15:20 126 17.8
2019-Dec-05 15:10 138 17.8
2019-Dec-05 15:00 069 17.2
2019-Dec-05 14:50 111 0 gusting 2 16.7
2019-Dec-05 14:40 119 16.7
2019-Dec-05 14:30 147 16.1
2019-Dec-05 14:20 069 15.6
2019-Dec-05 14:10 102 15.6
2019-Dec-05 14:00 114 15.0
2019-Dec-05 13:50 155 15.0
2019-Dec-05 13:40 186 15.0
2019-Dec-05 13:30 186 15.0
2019-Dec-05 13:20 186 14.4
2019-Dec-05 13:10 186 13.9
2019-Dec-05 13:00 13.3
2019-Dec-05 12:50 12.8
2019-Dec-05 12:40 186 12.2
2019-Dec-05 12:30 186 12.2
2019-Dec-05 12:20 186 11.7
2019-Dec-05 12:10 12.2
2019-Dec-05 12:00 186 12.2
2019-Dec-05 11:50 186 11.7
2019-Dec-05 11:40 186 11.7
2019-Dec-05 11:30 11.7
2019-Dec-05 11:20 11.7
2019-Dec-05 11:10 12.2
2019-Dec-05 11:00 186 12.2
2019-Dec-05 10:50 186 12.2
2019-Dec-05 10:40 12.2
2019-Dec-05 10:30 186 12.2
2019-Dec-05 10:20 186 11.7
2019-Dec-05 10:10 11.7
2019-Dec-05 10:00 11.7
2019-Dec-05 09:50 186 12.2
2019-Dec-05 09:40 12.2
2019-Dec-05 09:30 12.2
2019-Dec-05 09:20 186 12.2
2019-Dec-05 09:10 186 11.7
2019-Dec-05 09:00 12.2
2019-Dec-05 08:50 12.2
2019-Dec-05 08:40 186 12.2
2019-Dec-05 08:30 186 12.2
2019-Dec-05 08:20 12.2
2019-Dec-05 08:10 12.2
2019-Dec-05 08:00 186 12.2